Workout of the Day

« September 7, 2022 »

4 x 6 minutes with rate changes. 2 minutes rest between intervals.

4 x 6 minutes of work with two minutes rest between intervals. Each 6 minute interval is split into 3 minutes then 2 minutes then 1 minute at different stroke rates or cadence. RowErg: 3 minutes at 22, 2 minutes at 24, 1 minute at 28. SkiErg: 3 minutes at 33, 2 minutes at 36, 1 minute at 42. BikeErg: 3 minutes at 78, 2 minutes at 82, 1 minute at 90.

Pos. Name Age Country Result Pace
1451 Darren Wright 50 USA 4,390 2:44.0
1452 Thomas Johnson 36 USA 4,389 2:44.0
1453 Stuart Carruthers 51 GBR 4,374 2:44.6
1454 Sam Heatley 41 GBR 4,373 2:44.6
1455 Brooke Surian 55 USA 4,369 2:44.7
1456 Bob Bae 36 KOR 4,368 2:44.8
1457 Oliver Roufosse 49 GER 4,366 2:44.9
1458 Paul Roddy 37 USA 4,357 2:45.2
1459 Tom Rizzo, Jr. 63 USA 4,348 2:45.5
1460 Karl Werckmann 67 USA 4,347 2:45.6
1460 张 欣 36 CHN 4,347 2:45.6
1462 Redylette Bailey 37 USA 4,343 2:45.7
1462 Shaun Murphy 64 AUS 4,343 2:45.7
1464 Andrew Griffith 73 USA 4,341 2:45.8
1464 Donna Evoy 42 CAN 4,341 2:45.8
1466 Jessica Kerckhove 41 USA 4,339 2:45.9
1467 Ret Trubey 34 USA 4,338 2:45.9
1468 Jeff Cubos 44 CAN 4,336 2:46.0
1469 Panagiotis Theodorikakos 52 GRE 4,333 2:46.1
1469 Joanne Han 60 USA 4,333 2:46.1
1471 Michael K 54 NED 4,326 2:46.4
1472 ashley quist 36 USA 4,323 2:46.5
1473 Adam Altman 47 USA 4,322 2:46.5
1474 Larry Matz 67 USA 4,320 2:46.6
1475 William Almon 67 USA 4,311 2:47.0
1476 John Denham 36 USA 4,305 2:47.2
1477 Jair Cranmore 38 USA 4,301 2:47.4
1478 Michel Babik 47 FRA 4,300 2:47.4
1479 Avril Acres 55 GBR 4,298 2:47.5
1480 Cecy Cano - USA 4,296 2:47.5
1480 Jacqueline Hamilton 67 USA 4,296 2:47.5
1482 Gail Whitney 64 USA 4,295 2:47.6
1482 Rebecca Tesseur 29 BEL 4,295 2:47.6
1484 Jose L. Cienfuegos 61 USA 4,293 2:47.7
1485 Betsy Reeves 71 USA 4,292 2:47.7
1485 Kathrin Wolf 34 GER 4,292 2:47.7
1487 Bryce Beard 30 USA 4,289 2:47.8
1487 Planar Knight 55 USA 4,289 2:47.8
1489 Dean Baluch 42 USA 4,287 2:47.9
1490 小 米 38 CHN 4,286 2:47.9
1491 Peter Offermann 77 USA 4,282 2:48.1
1492 June Winchester 44 USA 4,277 2:48.3
1493 Eva Kyriopo 35 USA 4,275 2:48.4
1494 Milosz Matenko 41 POL 4,271 2:48.5
1495 Cathy Miller 68 USA 4,270 2:48.6
1496 Dave Roesener 44 USA 4,263 2:48.8
1497 Bill Chapman 70 USA 4,259 2:49.0
1498 Sue Corrente 50 USA 4,254 2:49.2
1499 Tod Keltner 61 USA 4,252 2:49.3
1499 Wesley Gee 45 USA 4,252 2:49.3